Tracking 35274 objects as of 11-Sep-2026
HD Live streaming from Space Station
objects crossing your sky now

PROGRESS 10


PROGRESS 10 is no longer on orbit


NORAD ID: 11867
Int'l Code: 1980-055A
Launch date: June 29, 1980
Source: Commonwealth of Independent States (former USSR) (CIS)
Launch site: TYURATAM MISSILE AND SPACE COMPLEX (TTMTR)
Decay date: 1980-07-19
Your satellite tracking list
Your tracking list is empty




NASA's NSSDC Master Catalog

Two Line Element Set (TLE):
1 11867U 80055  A 80200.36259012  .00059185 +00000-0 +02575-4 0  9990
2 11867 051.6245 257.5174 0008232 021.3456 338.7888 15.79209423161235
Source of the keplerian elements: AFSPC